Location: Haulchin
(50.3172°N, 3.4360°E)
Time: 06:07:23
(UTC+00:00)

Cosmos 2333 Rocket - Pass Details

Date: 11 August 2024
Orbit: 839 x 863 km, 70.8° (Epoch: 16 September)

Event Time Altitude Azimuth Distance (km) Brightness Sun altitude
Exits shadow 01:09:24 45° 229° (SW) 1,159 2.5 -22.3°
Maximum altitude 01:11:12 74° 301° (WNW) 900 2.3 -22.2°
Drops below altitude 10° 01:16:59 10° 27° (NNE) 2,513 5.8 -21.9°
Sets 01:19:29 0° 30° (NNE) 3,454 6.9 -21.7°
